This demonstration page uses our WeatherBlox Daily Observations layout. Learn more.

Left ArrowRight Arrow

39.01783, -85.05884

Hourly Observations for January 11, 2021

Temp ( °F °C ) Dew Point ( °F °C ) Humidity (%) Winds ( mph kmh ) Pressure ( in mb ) Visibility ( mi km ) Precip ( " mm )
12:52 am 00:52 Cloudy with Haze 29 -1.7 22 -5.6 75 75 NNW 5 7 30.31 1026 6 10 0.00 0.00
1:52 am 01:52 Cloudy with Haze 29 -1.7 22 -5.6 75 75 W 6 9 30.32 1027 6 10 0.00 0.00
2:45 am 02:45 Cloudy 30 -1.1 22 -5.6 72 72 Calm 30.34 1027 7 11 0.00 0.00
2:52 am 02:52 Cloudy 30 -1.1 22 -5.6 72 72 Calm 30.30 1026 7 11 0.00 0.00
3:52 am 03:52 Cloudy with Haze 29 -1.7 22 -5.6 75 75 W 5 7 30.31 1026 6 10 0.00 0.00
4:52 am 04:52 Cloudy with Haze 29 -1.7 22 -5.6 75 75 W 5 7 30.30 1026 6 10 0.00 0.00
5:52 am 05:52 Cloudy with Haze 29 -1.7 22 -5.6 75 75 W 3 6 30.30 1026 6 10 0.00 0.00
6:52 am 06:52 Cloudy with Haze 29 -1.7 22 -5.6 75 75 W 5 7 30.33 1027 6 10 0.00 0.00
7:52 am 07:52 Cloudy with Haze 29 -1.7 22 -5.6 75 75 W 7 11 30.32 1027 6 10 0.00 0.00
8:52 am 08:52 Cloudy with Haze 29 -1.7 21 -6.1 72 72 W 7 11 30.31 1026 6 10 0.00 0.00
9:52 am 09:52 Cloudy with Haze 28 -2.2 20 -6.7 72 72 NW 5 7 30.35 1028 6 10 0.00 0.00
10:52 am 10:52 Cloudy 28 -2.2 20 -6.7 72 72 W 7 11 30.36 1028 7 11 0.00 0.00
11:52 am 11:52 Cloudy 30 -1.1 20 -6.7 66 66 WNW 7 11 30.32 1027 7 11 0.00 0.00
12:52 pm 12:52 Cloudy 29 -1.7 19 -7.2 66 66 NW 6 9 30.30 1026 7 11 0.00 0.00
1:52 pm 13:52 Cloudy 30 -1.1 19 -7.2 64 64 WNW 8 13 30.29 1026 7 11 0.00 0.00
2:52 pm 14:52 Cloudy 30 -1.1 20 -6.7 66 66 WNW 8 13 30.29 1026 8 13 0.00 0.00
3:52 pm 15:52 Cloudy 30 -1.1 20 -6.7 66 66 W 7 11 30.29 1026 8 13 0.00 0.00
4:52 pm 16:52 Cloudy 29 -1.7 19 -7.2 66 66 W 5 7 30.28 1026 8 13 0.00 0.00
5:52 pm 17:52 Mostly Cloudy 27 -2.8 19 -7.2 72 72 WNW 7 11 30.29 1026 9 14 0.00 0.00
6:02 pm 18:02 Partly Cloudy 27 -2.8 19 -7.2 72 72 WNW 7 11 30.32 1027 8 13 0.00 0.00
6:52 pm 18:52 Partly Cloudy 26 -3.3 19 -7.2 75 75 WNW 8 13 30.29 1026 7 11 0.00 0.00
7:05 pm 19:05 Mostly Cloudy 26 -3.3 19 -7.2 75 75 WNW 7 11 30.32 1027 7 11 0.00 0.00
7:23 pm 19:23 Partly Cloudy 25 -3.9 18 -7.8 75 75 WNW 7 11 30.33 1027 7 11 0.00 0.00
7:52 pm 19:52 Mostly Clear 24 -4.4 18 -7.8 77 77 WNW 6 9 30.29 1026 7 11 0.00 0.00
8:13 pm 20:13 Mostly Cloudy 23 -5 18 -7.8 81 81 W 3 6 30.33 1027 7 11 0.00 0.00
8:26 pm 20:26 Partly Cloudy 24 -4.4 18 -7.8 77 77 W 5 7 30.32 1027 7 11 0.00 0.00
8:52 pm 20:52 Mostly Clear 24 -4.4 18 -7.8 77 77 SW 5 7 30.28 1025 7 11 0.00 0.00
9:52 pm 21:52 Hazy 23 -5 18 -7.8 81 81 WSW 6 9 30.27 1025 6 10 0.00 0.00
10:09 pm 22:09 Mostly Cloudy with Haze 23 -5 18 -7.8 81 81 W 5 7 30.32 1027 6 10 0.00 0.00
10:52 pm 22:52 Cloudy with Mist and Fog 24 -4.4 20 -6.7 84 84 WSW 6 9 30.27 1025 6 10 0.00 0.00
11:52 pm 23:52 Cloudy with Haze 24 -4.4 19 -7.2 81 81 W 7 11 30.27 1025 5 8 0.00 0.00

Powered by AerisWeather